Regional Weather Roundup
Issued by NWS Kansas City/Pleasant Hill, MO

Home | Current Version | Previous Version | Graphics & Text | Print | Product List | Glossary Off
Versions: 1 2 3 4 5 6 7 8 9 10 11 12 13 14 15 16 17 18 19 20 21 22 23 24 25 26 27 28 29 30 31 32 33 34 35 36 37 38 39 40 41 42 43 44 45 46 47 48 49 50

000
ASUS43 KEAX 210604
RWREAX

WEATHER ROUNDUP FOR EASTERN KANSAS AND NORTHWEST MISSOURI
NATIONAL WEATHER SERVICE KANSAS CITY/PLEASANT HILL MO
100 AM CDT MON APR 21 2014

KSZ040-057-103>105-MOZ028-029-037-043-210700-
...KANSAS CITY METROPOLITAN AREA...

CITY           SKY/WX    TMP DP  RH WIND       PRES   REMARKS
K.C. INTL      CLOUDY    64  54  69 S8        30.00F
6HR MIN TEMP:  62; 6HR MAX TEMP:  73; 6HR PCP: TRACE;

K.C. DOWNTOWN  CLOUDY    67  54  63 S7        30.00S
6HR MIN TEMP:  67; 6HR MAX TEMP:  75; 6HR PCP: TRACE;

LEES SUMMIT    CLOUDY    67  53  61 S7        30.01F
6HR MIN TEMP:  66; 6HR MAX TEMP:  73;

OLATHE - IXD   CLOUDY    62  55  77 S7        30.01F
6HR MIN TEMP:  62; 6HR MAX TEMP:  71; 6HR PCP: TRACE;

OLATHE - OJC   CLOUDY    63  54  72 S5        30.01S
6HR MIN TEMP:  63; 6HR MAX TEMP:  70;

LAWRENCE       CLOUDY    63  56  78 SE5       30.00F

$$

MOZ001>008-011>017-020>025-030>033-038>040-044>046-053-054-210700-
...NORTHERN AND CENTRAL MISSOURI...

CITY           SKY/WX    TMP DP  RH WIND       PRES   REMARKS
ST. JOSEPH     CLOUDY    63  56  78 S7        29.99S
6HR MIN TEMP:  63; 6HR MAX TEMP:  75;

MOSBY          CLOUDY    64  55  72 CALM      30.00S
WHITEMAN AFB   FAIR      60  51  71 S3        30.01S
6HR MIN TEMP:  60; 6HR MAX TEMP:  71;

CLINTON        FAIR      57  55  94 CALM      30.02F
SEDALIA        FAIR      62  54  74 S5        30.02F
6HR MIN TEMP:  62; 6HR MAX TEMP:  74;

WARSAW         NOT AVBL
MARSHALL         N/A     66  55  68 S5        30.02S
CHILLICOTHE      N/A     68  53  58 SW3       30.01S
6HR MIN TEMP:  67; 6HR MAX TEMP:  75;

MOBERLY        FAIR      66  50  55 SW5       30.02F
KIRKSVILLE     FAIR      68  50  52 SW6       30.01S
6HR MIN TEMP:  66; 6HR MAX TEMP:  75;


$$

MOZ041-047>049-056>058-063>065-088>090-097-210700-
...EASTERN AND SOUTHERN MISSOURI...

CITY           SKY/WX    TMP DP  RH WIND       PRES   REMARKS
ST. LOUIS INTL MOCLDY    71  43  36 S7        30.03F
6HR MIN TEMP:  71; 6HR MAX TEMP:  79;

SPIRIT OF STL  FAIR      69  41  36 S6        30.02S
COLUMBIA       FAIR      65  50  58 W3        30.02F
JEFFERSON CITY FAIR      61  52  72 NW6       30.02S
MEXICO         FAIR      59  54  82 CALM      30.02S
HANNIBAL       FAIR      66  45  45 SW3       30.02S
ROLLA          FAIR      65  46  50 S9        30.02F
LEBANON        FAIR      61  46  59 CALM      30.05S
OSAGE BEACH    FAIR      61  48  63 CALM      30.04S
SPRINGFIELD    FAIR      59  50  72 SE3       30.03F
BRANSON        MOCLDY    66  50  55 S5        30.05S
JOPLIN         CLOUDY    63  52  67 S6        30.04R
WEST PLAINS    FAIR      65  48  54 S6        30.07F

$$

IAZ060-094-KSZ022-034>040-054-083-096-NEZ052-066-093-210700-
...KANSAS...SOUTHEAST NEBRASKA AND IOWA...

CITY           SKY/WX    TMP DP  RH WIND       PRES   REMARKS
TOPEKA         CLOUDY    66  56  70 S5        30.00R
6HR MIN TEMP:  64; 6HR MAX TEMP:  72; 6HR PCP:  0.01;

MANHATTAN      CLOUDY    63  56  78 S5        29.99R
EMPORIA        CLOUDY    61  54  77 S7        30.01R
CHANUTE        LGT RAIN  63  55  75 S7        30.03R
WICHITA        MOCLDY    59  54  83 S8        29.99R
OMAHA          CLOUDY    62  58  86 S5        29.96R
LINCOLN        FAIR      60  54  80 S6        29.97R
FALLS CITY     FAIR      65  57  75 S9        29.97R
LAMONI         FAIR      63  53  70 SW7       29.98S
DES MOINES     CLOUDY    66  54  65 SW5       29.97S

$$




USA.gov is the U.S. government's official web portal to all federal, state and local government web resources and services.